SCP
0 0 0 0 0 0 0 0 0 0 0 0 0 -0 0 -0 -0 0 -0 -0 0 0 -0 -0 -0 -0 -0 -0 -0 0 -0 -0 -0 -0 -0 -0 -0 -0 -0 -0 -0 -0 -0 -0 -0 -0 -0 -0 -0
0 0 0 0 0 0 0 0 0 0 0 0 0 0 0 0 0 -0 -0 -0 0 0 -0 -0 -0 -0 -0 -0 -0 0 -0 -0 -0 -0 -0 -0 -0 -0 -0 -0 -0 -0 -0 -0 -0 -0 -0 -0 -0
0 0 0 0 0 0 0 0 0 0 0 0 0 0 0 0 -0 -0 -0 -0 0 0 0 -0 0 0 0 0 -0 0 -0 -0 -0 0 -0 -0 -0 -0 -0 -0 -0 -0 -0 -0 -0 -0 -0 -0 -0
0 0 0 0 0 0 0 0 0 -0 0 0 0 0 0 0 -0 -0 -0 -0 0 0 -0 -0 0 0 0 0 0 -0 -0 -0 -0 0 -0 -0 -0 -0 -0 -0 -0 -0 -0 -0 -0 -0 -0 -0 -0
0 0 0 0 0 0 0 0 0 0 0 0 0 0 0 0 0 -0 -0 -0 0 0 -0 -0 0 0 0 0 0 -0 -0 -0 -0 -0 -0 -0 -0 -0 -0 -0 -0 -0 -0 -0 -0 -0 -0 -0 -0
0 0 0 0 0 0 0 0 0 0 0 0 0 0 0 0 -0 -0 -0 0 -0 0 -0 -0 0 0 0 0 0 -0 -0 -0 -0 -0 -0 -0 -0 -0 -0 -0 -0 -0 -0 -0 -0 -0 -0 0 0
0 0 0 0 0 0 0 0 0 0 0 0 0 0 0 0 -0 -0 -0 0 -0 -0 -0 0 0 0 0 -0 -0 -0 0 0 -0 -0 -0 -0 -0 -0 -0 -0 -0 -0 -0 -0 -0 -0 -0 -0 0
0 0 0 0 0 0 0 0 0 0 0 0 0 -0 0 -0 -0 -0 0 0 0 -0 0 0 0 -0 0 0 -0 0 -0 -0 -0 -0 -0 -0 -0 -0 -0 -0 -0 -0 -0 -0 -0 0 -0 -0 0
0 0 0 0 0 0 0 0 0 0 0 0 0 0 0 -0 -0 -0 0 0 0 0 0 0 0 0 0 0 0 -0 0 -0 -0 -0 0 0 0 -0 -0 -0 -0 -0 -0 -0 -0 -0 0 0 0
0 0 0 0 0 0 0 0 0 0 0 0 0 0 -0 -0 -0 -0 -0 -0 -0 0 0 0 0 0 0 0 0 0 0 0 0 0 0 0 0 0 -0 -0 -0 -0 -0 -0 -0 -0 0 0 0
0 0 0 0 0 0 0 0 0 0 0 0 0 0 -0 -0 -0 -0 0 0 0 -0 0 0 0 0 0 0 0 0 0 0 0 0 0 0 0 0 0 -0 -0 -0 0 0 0 0 0 0 0
0 0 0 0 0 0 0 0 0 0 0 0 0 -0 -0 -0 -0 -0 -0 -0 0 -0 0 0 0 0 0 0 0 0 0 0 0 0 -0 -0 -0 0 -0 -0 -0 -0 0 0 0 0 0 0 0
0 0 0 0 0 0 0 0 0 0 0 0 0 0 -0 -0 -0 -0 0 0 -0 -0 0 0 0 0 0 0 0 0 0 0 -0 -0 -0 -0 0 0 -0 -0 0 0 0 0 0 0 0 0 0
0 0 0 0 0 0 0 0 0 0 0 0 0 0 0 -0 -0 0 0 0 0 0 -0 0 0 0 0 0 0 0 0 0 0 0 0 0 0 -0 0 0 0 0 0 0 0 0 0 0 0
0 0 0 0 0 0 0 0 0 0 0 0 0 0 0 0 0 0 0 0 0 0 0 0 0 0 0 0 0 0 0 0 0 0 -0 -0 0 0 0 0 0 0 0 0 0 0 0 0 0
0 0 0 0 0 0 0 0 0 0 0 0 0 0 0 0 0 0 0 0 0 0 0 0 0 0 0 0 0 0 0 0 0 0 0 0 0 0 0 0 0 0 0 0 0 0 0 0 0
0 0 0 0 0 0 0 0 0 0 0 0 0 0 0 0 0 0 0 0 0 0 0 0 0 0 0 0 0 0 0 0 0 0 0 0 0 0 0 0 0 0 0 0 0 0 0 0 0
0 0 0 0 0 0 0 -0 0 0 0 0 0 0 0 0 0 0 0 0 0 0 0 0 0 0 0 0 0 0 0 0 0 0 0 0 0 0 0 0 0 0 0 0 0 0 0 0 0
0 0 0 0 0 0 0 -0 0 0 0 0 0 0 0 0 0 0 0 0 0 0 0 0 0 0 0 0 0 0 0 0 0 0 0 0 0 0 0 0 0 0 0 0 0 0 0 0 0
0 0 0 0 0 0 0 -0 -0 -0 0 0 0 0 0 0 0 0 0 0 0 0 0 0 0 0 0 0 0 0 0 0 0 0 0 0 0 0 0 0 0 0 0 0 0 0 0 0 0
0 0 0 0 0 0 0 -0 -0 -0 -0 0 0 0 0 0 0 0 0 0 0 0 0 0 0 0 0 0 0 0 0 0 0 0 0 0 0 0 0 0 0 0 0 0 0 0 0 0 0
0 0 0 0 0 0 0 0 0 0 0 0 0 0 0 0 0 0 0 0 0 0 0 0 0 0 0 0 0 0 0 0 0 0 0 0 0 0 0 0 0 0 0 0 0 0 0 0 0
0 0 0 0 0 0 0 0 0 0 0 0 0 0 0 0 0 0 0 0 0 0 0 0 0 0 0 0 0 0 0 0 0 0 0 0 0 0 0 0 0 0 0 0 0 0 0 0 0
0 0 0 0 0 0 0 0 0 0 0 0 0 0 0 0 0 0 0 0 0 0 0 0 0 0 0 0 0 0 0 0 0 0 0 0 0 0 0 0 0 0 0 0 0 0 0 0 0
0 0 0 0 0 0 0 0 0 0 0 0 0 0 0 0 0 0 0 0 0 0 0 0 0 0 0 0 0 0 0 0 0 0 0 0 0 0 0 0 0 0 0 0 0 0 0 0 0
0 0 0 0 0 0 0 0 0 0 0 0 0 0 0 0 0 0 0 0 0 0 0 0 0 0 0 0 0 0 0 0 0 0 0 0 0 0 0 0 0 0 0 0 0 0 0 0 0
0 0 0 0 0 0 0 0 -0 0 0 -0 -0 -0 0 0 0 0 0 0 0 0 0 0 0 0 0 0 0 0 0 0 0 0 0 0 0 0 0 0 0 0 0 0 0 0 0 0 0
0 0 0 0 0 0 0 0 0 0 -0 0 0 0 0 -0 0 0 0 0 0 0 0 0 0 0 0 0 0 0 0 0 0 0 0 0 0 0 0 0 0 0 0 0 0 0 0 0 0
0 0 0 0 0 0 0 0 0 0 0 0 0 0 0 0 0 0 0 0 0 0 0 0 0 0 0 0 0 0 0 0 0 0 0 0 0 0 0 0 0 0 0 0 0 0 0 0 0
0 0 0 0 0 0 0 0 0 0 0 0 0 0 0 0 0 0 0 0 0 0 0 0 0 0 0 0 0 0 0 0 0 0 0 0 0 0 0 0 0 0 0 0 0 0 0 0 0
Wind_Speed_500mb
12 12 9 4 6 5 7 8 1 12 12 5 12 4 4 9 4 6 29 42 35 32 30 23 19 16 15 16 19 21 21 22 23 18 17 13 16 21 26 31 25 34 33 30 31 31 30 29 29
12 11 5 1 6 9 7 9 12 10 10 18 15 10 6 6 6 18 38 44 35 33 29 26 21 17 16 18 22 23 21 22 21 18 18 20 21 23 35 30 29 35 36 31 33 33 34 34 32
10 8 4 2 3 6 2 12 17 16 19 11 10 5 5 7 7 36 33 48 36 32 30 25 19 17 19 26 24 21 22 22 25 29 26 29 26 33 35 32 28 32 36 31 31 33 34 34 35
8 5 2 7 3 3 5 9 15 28 5 7 11 12 8 6 25 23 49 42 35 32 29 24 19 17 23 34 24 22 20 22 21 31 31 29 28 28 33 32 28 31 34 30 31 30 30 32 33
9 6 7 4 5 2 4 3 25 22 14 13 10 11 6 19 20 35 49 40 37 31 30 27 20 17 25 32 25 20 24 24 23 29 28 28 28 27 29 29 28 29 32 29 28 28 29 30 31
9 4 9 16 10 6 5 12 25 14 12 14 9 19 14 19 27 45 48 37 34 29 31 29 22 18 23 30 27 21 23 22 24 26 28 29 28 25 26 26 26 26 26 26 25 26 27 27 29
8 8 13 8 11 5 6 23 26 16 14 13 16 17 10 23 34 47 47 43 36 30 32 30 26 21 22 27 27 21 19 22 24 28 29 26 24 24 25 24 22 22 23 21 22 23 25 26 26
10 6 11 9 13 8 15 23 14 15 12 13 17 8 12 37 44 50 49 45 39 36 34 33 29 26 26 26 25 24 20 20 25 29 27 26 25 24 22 21 20 19 19 19 20 21 22 24 24
17 11 16 17 11 8 24 20 14 12 15 9 14 6 10 49 52 52 51 46 43 38 37 35 32 28 26 28 26 24 23 21 21 23 23 21 21 21 20 18 16 14 15 18 19 19 19 21 21
7 13 19 2 4 3 22 23 27 16 18 12 15 13 28 50 58 58 57 52 48 44 42 39 35 29 27 26 25 23 22 20 20 21 20 19 19 18 17 16 15 12 12 13 15 15 16 17 18
3 20 9 4 6 2 14 15 17 19 17 25 30 30 45 55 58 57 55 51 48 47 44 44 41 34 29 27 26 25 23 23 21 20 18 16 16 15 14 14 13 13 11 10 10 11 12 12 13
11 9 6 3 6 8 11 12 13 29 8 14 19 33 51 61 61 60 58 50 46 50 46 43 43 38 33 27 24 22 21 19 20 18 17 14 12 11 10 10 9 9 8 8 7 7 7 8 9
19 25 16 10 12 4 9 12 12 28 16 9 28 35 49 60 61 54 53 49 47 49 51 48 43 41 38 35 30 26 23 21 17 16 15 13 12 10 8 7 5 4 4 4 5 4 3 5 6
10 15 9 5 13 2 3 5 9 23 32 18 29 37 45 58 62 58 56 55 52 48 50 50 46 42 40 39 39 35 30 27 24 20 17 15 12 10 7 5 3 2 1 2 2 1 0 2 3
12 12 9 11 6 6 2 8 18 10 29 25 31 35 42 49 53 62 59 58 52 47 46 46 48 46 41 36 34 32 29 26 25 23 21 17 15 14 13 10 7 5 3 5 3 3 2 1 7
12 3 14 5 12 6 2 20 6 20 22 33 32 33 38 47 56 61 60 60 54 51 50 47 45 44 43 42 39 36 33 30 28 27 24 21 20 20 18 15 12 10 7 5 2 5 8 8 14
2 10 27 19 4 8 2 15 6 12 23 28 30 34 38 41 51 56 63 63 59 56 53 52 49 45 41 39 39 37 36 35 32 30 27 24 24 22 21 21 18 13 9 8 10 11 14 17 23
13 13 9 24 6 5 17 27 28 13 20 31 29 32 38 43 48 54 64 65 61 58 56 54 52 50 46 45 44 43 43 41 38 35 30 26 23 22 17 15 16 14 15 15 15 16 17 21 25
22 20 24 9 7 2 17 33 40 45 20 32 34 37 40 45 42 50 61 66 67 64 60 60 58 54 55 54 53 52 51 47 44 40 31 35 30 26 25 19 20 20 19 22 22 22 23 25 28
29 26 23 11 11 11 16 33 30 43 32 38 39 39 45 39 44 55 63 66 70 69 67 65 64 60 59 57 55 54 51 51 46 40 38 40 37 35 34 28 25 26 27 28 28 28 26 27 30
14 29 20 7 6 6 8 33 39 30 41 42 40 43 41 48 53 54 64 67 68 74 75 73 71 67 64 61 58 57 57 56 51 47 44 46 37 38 36 36 35 34 33 35 36 31 29 30 32
14 12 17 13 6 9 18 16 24 28 42 32 43 47 54 54 59 55 65 70 73 76 74 77 75 74 72 68 70 67 66 63 53 47 46 41 40 42 40 41 38 39 42 40 39 34 31 32 31
8 15 10 2 4 4 14 11 17 7 28 38 40 48 58 65 63 67 70 72 69 67 72 76 78 79 79 77 76 73 72 67 58 55 49 48 45 47 38 45 45 45 45 45 39 33 37 33 32
25 16 13 6 3 13 23 22 20 20 29 33 44 51 61 73 74 67 68 69 72 70 70 72 75 81 80 82 81 80 76 73 68 67 62 55 52 49 42 44 47 52 49 45 40 39 37 34 33
9 24 6 4 8 14 3 21 31 20 22 33 40 49 60 62 76 75 71 71 71 75 77 78 77 81 82 84 83 82 80 77 75 71 67 66 62 58 51 45 44 50 48 45 43 40 35 34 35
30 20 8 12 10 5 4 19 8 22 38 32 30 29 32 46 60 72 68 68 76 81 78 80 81 83 84 84 84 85 82 82 78 73 70 70 69 59 56 45 38 41 47 45 43 38 38 35 32
16 17 9 2 4 4 9 13 19 16 18 26 37 34 41 35 46 47 52 66 71 77 83 80 81 83 86 84 88 89 88 85 81 76 73 72 72 68 59 48 44 43 44 45 44 43 42 35 32
24 30 11 8 10 11 9 12 18 6 22 18 20 27 35 39 41 43 45 49 55 63 70 74 76 78 80 81 83 81 80 79 78 76 77 74 72 71 67 59 50 47 48 49 47 46 40 36 32
20 22 11 10 8 7 6 8 8 14 10 17 17 19 19 27 34 39 40 42 47 54 58 60 76 83 84 83 79 76 74 72 73 74 74 72 68 74 75 66 56 51 50 52 49 46 42 37 32
34 25 32 12 14 9 3 13 5 7 5 8 10 13 18 24 28 31 33 37 46 49 52 58 68 80 79 77 75 73 73 75 76 78 77 72 69 78 76 72 58 49 51 49 50 47 42 38 33
Wind_Direction_500mb
339 345 359 351 223 241 145 149 162 151 160 129 138 178 113 42 354 32 148 161 155 150 149 147 151 143 141 137 131 139 151 157 150 139 137 132 114 108 119 109 101 97 96 90 86 82 79 79 80
324 345 353 209 243 227 139 147 176 150 129 129 122 118 122 90 78 134 148 159 156 151 147 151 147 141 138 128 114 121 141 157 156 143 127 117 114 112 105 105 97 97 95 88 89 83 76 75 74
317 338 269 223 241 262 142 171 146 130 136 153 138 71 105 122 130 143 159 156 154 152 149 151 140 133 126 118 118 114 115 123 131 117 123 116 112 114 108 105 101 104 99 95 87 81 78 73 75
312 299 77 244 178 104 17 147 154 148 145 148 143 118 97 163 145 159 158 152 155 152 150 149 143 131 129 126 134 130 123 123 122 122 118 115 112 111 118 115 110 97 102 97 84 80 78 76 75
289 251 205 181 194 159 230 205 173 165 147 156 166 134 103 141 154 157 158 156 160 156 155 152 145 140 138 135 138 134 115 123 126 121 120 117 116 111 113 113 107 98 100 92 86 82 78 74 75
237 250 217 218 208 172 212 180 171 179 153 151 158 135 136 170 162 161 165 161 165 160 157 156 149 146 145 149 149 138 114 114 118 119 115 114 107 108 110 109 107 101 97 91 86 85 85 80 76
248 227 220 202 207 205 174 156 177 178 157 179 148 150 152 169 162 163 165 169 171 163 160 162 154 153 147 150 154 149 129 122 125 117 113 110 110 108 105 106 105 102 98 92 88 89 83 80 78
186 236 179 216 208 192 151 164 172 181 167 156 168 176 172 180 166 167 171 173 175 170 167 169 161 158 158 147 151 153 143 122 118 119 119 116 112 109 107 108 107 103 97 95 90 87 86 79 77
165 210 214 217 189 161 162 176 158 177 141 166 183 150 172 169 168 171 176 179 178 176 176 173 168 166 164 153 150 149 148 140 128 123 119 114 111 112 113 112 109 109 104 93 88 86 85 79 73
173 215 208 194 194 158 178 197 158 168 162 187 175 183 168 172 174 179 182 183 180 174 182 179 176 174 169 161 158 155 149 144 138 132 128 127 124 116 111 116 116 109 97 94 91 90 86 77 68
63 226 146 129 185 179 183 206 179 175 196 202 196 178 172 179 181 185 187 188 180 178 185 185 180 179 179 173 172 164 161 154 149 143 140 137 132 130 126 117 110 107 115 114 94 87 88 75 61
126 214 143 30 306 159 171 179 199 206 216 193 182 193 178 186 189 190 193 190 186 183 186 191 185 184 183 183 180 175 173 169 162 154 149 143 138 137 130 122 117 115 115 116 112 102 84 60 51
198 171 147 117 9 197 164 208 212 219 214 184 182 191 190 193 196 195 198 196 194 190 187 192 191 189 188 185 187 186 186 183 178 174 172 170 167 160 154 147 135 132 127 132 121 105 73 57 55
154 154 153 128 353 24 194 194 203 227 204 196 188 193 196 201 200 199 201 201 201 197 196 193 195 197 198 196 191 192 194 195 193 195 196 196 194 196 199 199 198 192 191 171 159 247 360 64 47
103 179 205 184 126 64 323 193 226 220 193 197 193 193 197 201 203 206 202 202 202 201 202 204 200 199 202 207 210 204 202 206 209 212 213 212 216 222 225 227 225 211 143 112 112 79 65 27 338
206 237 213 139 135 83 276 238 238 210 192 204 202 200 200 203 210 210 205 205 203 205 205 206 211 209 205 205 207 212 215 216 219 222 224 226 230 232 230 231 230 224 212 167 122 329 325 315 317
187 189 219 218 74 126 179 283 8 215 208 223 213 206 207 209 213 213 209 207 208 208 208 210 210 215 216 218 219 218 221 225 227 228 232 237 242 250 246 234 230 220 202 231 259 277 292 299 309
156 198 208 220 154 180 220 247 273 265 239 235 224 219 216 212 216 213 210 209 211 213 213 215 217 217 217 219 222 224 226 226 229 231 232 238 246 250 258 255 221 212 234 250 262 284 289 295 300
160 189 214 187 191 186 241 250 258 270 254 247 233 223 221 221 216 214 214 213 214 215 216 217 218 218 220 221 222 225 227 228 232 234 235 239 243 251 253 256 247 232 245 263 270 277 284 288 297
166 181 210 217 162 205 252 263 256 260 251 250 243 233 227 222 219 216 213 215 219 219 218 219 221 221 224 226 228 231 236 236 240 239 242 243 243 247 245 248 251 251 257 263 272 273 279 286 295
178 197 180 187 187 216 288 275 253 247 239 252 244 242 237 224 221 219 217 217 220 223 222 222 223 225 226 228 231 231 233 235 234 235 233 241 241 242 243 245 247 253 253 260 264 272 275 283 283
157 146 121 108 186 238 198 272 237 235 231 217 243 236 238 232 230 224 222 221 222 223 226 228 227 228 230 229 232 234 235 236 236 241 246 246 235 250 242 250 246 251 253 256 260 262 272 273 270
129 142 140 192 233 292 207 256 259 240 236 229 226 238 236 238 233 230 229 227 228 228 229 230 230 230 231 232 233 235 238 239 243 241 240 240 244 246 254 249 248 248 256 259 255 265 274 262 261
141 99 46 53 345 256 226 224 243 228 225 229 229 224 241 236 239 235 234 232 231 231 232 233 233 233 232 233 234 233 237 240 241 244 241 236 239 246 246 253 249 248 254 256 260 270 263 255 253
112 136 102 178 199 244 72 220 246 248 240 232 229 224 227 237 235 239 238 234 231 231 233 234 233 234 233 234 234 236 237 240 244 246 241 238 239 237 245 249 250 254 255 253 259 260 247 245 249
168 171 150 188 201 243 142 233 251 253 240 245 246 240 229 236 239 240 241 241 238 236 235 236 236 236 234 235 236 238 239 241 243 244 242 238 242 241 243 240 243 253 253 253 258 243 237 245 235
166 204 122 57 113 273 229 277 254 269 270 261 259 266 252 247 245 245 244 244 245 244 242 240 240 238 236 236 237 240 241 241 244 243 241 239 238 239 235 238 242 248 247 251 247 240 243 228 221
186 156 169 204 208 237 239 271 253 264 242 240 249 247 253 251 258 258 250 251 251 251 250 247 245 241 237 234 235 238 240 241 242 241 241 240 238 235 232 236 236 241 245 242 240 236 222 219 219
158 181 202 179 220 242 282 259 242 278 269 257 269 260 268 271 264 259 252 248 249 250 247 246 240 235 232 232 234 235 237 239 241 242 243 243 239 233 228 231 228 232 239 238 232 218 216 217 219
205 198 184 195 185 230 48 263 232 165 230 268 266 309 313 313 294 282 268 253 247 243 242 245 240 233 229 231 233 235 236 239 241 242 242 237 233 231 234 222 221 234 231 229 218 216 216 217 221
Wind_Speed_850mb
12 12 9 4 6 5 7 8 1 12 12 5 12 4 4 9 4 6 29 42 35 32 30 23 19 16 15 16 19 21 21 22 23 18 17 13 16 21 26 31 25 34 33 30 31 31 30 29 29
12 11 5 1 6 9 7 9 12 10 10 18 15 10 6 6 6 18 38 44 35 33 29 26 21 17 16 18 22 23 21 22 21 18 18 20 21 23 35 30 29 35 36 31 33 33 34 34 32
10 8 4 2 3 6 2 12 17 16 19 11 10 5 5 7 7 36 33 48 36 32 30 25 19 17 19 26 24 21 22 22 25 29 26 29 26 33 35 32 28 32 36 31 31 33 34 34 35
8 5 2 7 3 3 5 9 15 28 5 7 11 12 8 6 25 23 49 42 35 32 29 24 19 17 23 34 24 22 20 22 21 31 31 29 28 28 33 32 28 31 34 30 31 30 30 32 33
9 6 7 4 5 2 4 3 25 22 14 13 10 11 6 19 20 35 49 40 37 31 30 27 20 17 25 32 25 20 24 24 23 29 28 28 28 27 29 29 28 29 32 29 28 28 29 30 31
9 4 9 16 10 6 5 12 25 14 12 14 9 19 14 19 27 45 48 37 34 29 31 29 22 18 23 30 27 21 23 22 24 26 28 29 28 25 26 26 26 26 26 26 25 26 27 27 29
8 8 13 8 11 5 6 23 26 16 14 13 16 17 10 23 34 47 47 43 36 30 32 30 26 21 22 27 27 21 19 22 24 28 29 26 24 24 25 24 22 22 23 21 22 23 25 26 26
10 6 11 9 13 8 15 23 14 15 12 13 17 8 12 37 44 50 49 45 39 36 34 33 29 26 26 26 25 24 20 20 25 29 27 26 25 24 22 21 20 19 19 19 20 21 22 24 24
17 11 16 17 11 8 24 20 14 12 15 9 14 6 10 49 52 52 51 46 43 38 37 35 32 28 26 28 26 24 23 21 21 23 23 21 21 21 20 18 16 14 15 18 19 19 19 21 21
7 13 19 2 4 3 22 23 27 16 18 12 15 13 28 50 58 58 57 52 48 44 42 39 35 29 27 26 25 23 22 20 20 21 20 19 19 18 17 16 15 12 12 13 15 15 16 17 18
3 20 9 4 6 2 14 15 17 19 17 25 30 30 45 55 58 57 55 51 48 47 44 44 41 34 29 27 26 25 23 23 21 20 18 16 16 15 14 14 13 13 11 10 10 11 12 12 13
11 9 6 3 6 8 11 12 13 29 8 14 19 33 51 61 61 60 58 50 46 50 46 43 43 38 33 27 24 22 21 19 20 18 17 14 12 11 10 10 9 9 8 8 7 7 7 8 9
19 25 16 10 12 4 9 12 12 28 16 9 28 35 49 60 61 54 53 49 47 49 51 48 43 41 38 35 30 26 23 21 17 16 15 13 12 10 8 7 5 4 4 4 5 4 3 5 6
10 15 9 5 13 2 3 5 9 23 32 18 29 37 45 58 62 58 56 55 52 48 50 50 46 42 40 39 39 35 30 27 24 20 17 15 12 10 7 5 3 2 1 2 2 1 0 2 3
12 12 9 11 6 6 2 8 18 10 29 25 31 35 42 49 53 62 59 58 52 47 46 46 48 46 41 36 34 32 29 26 25 23 21 17 15 14 13 10 7 5 3 5 3 3 2 1 7
12 3 14 5 12 6 2 20 6 20 22 33 32 33 38 47 56 61 60 60 54 51 50 47 45 44 43 42 39 36 33 30 28 27 24 21 20 20 18 15 12 10 7 5 2 5 8 8 14
2 10 27 19 4 8 2 15 6 12 23 28 30 34 38 41 51 56 63 63 59 56 53 52 49 45 41 39 39 37 36 35 32 30 27 24 24 22 21 21 18 13 9 8 10 11 14 17 23
13 13 9 24 6 5 17 27 28 13 20 31 29 32 38 43 48 54 64 65 61 58 56 54 52 50 46 45 44 43 43 41 38 35 30 26 23 22 17 15 16 14 15 15 15 16 17 21 25
22 20 24 9 7 2 17 33 40 45 20 32 34 37 40 45 42 50 61 66 67 64 60 60 58 54 55 54 53 52 51 47 44 40 31 35 30 26 25 19 20 20 19 22 22 22 23 25 28
29 26 23 11 11 11 16 33 30 43 32 38 39 39 45 39 44 55 63 66 70 69 67 65 64 60 59 57 55 54 51 51 46 40 38 40 37 35 34 28 25 26 27 28 28 28 26 27 30
14 29 20 7 6 6 8 33 39 30 41 42 40 43 41 48 53 54 64 67 68 74 75 73 71 67 64 61 58 57 57 56 51 47 44 46 37 38 36 36 35 34 33 35 36 31 29 30 32
14 12 17 13 6 9 18 16 24 28 42 32 43 47 54 54 59 55 65 70 73 76 74 77 75 74 72 68 70 67 66 63 53 47 46 41 40 42 40 41 38 39 42 40 39 34 31 32 31
8 15 10 2 4 4 14 11 17 7 28 38 40 48 58 65 63 67 70 72 69 67 72 76 78 79 79 77 76 73 72 67 58 55 49 48 45 47 38 45 45 45 45 45 39 33 37 33 32
25 16 13 6 3 13 23 22 20 20 29 33 44 51 61 73 74 67 68 69 72 70 70 72 75 81 80 82 81 80 76 73 68 67 62 55 52 49 42 44 47 52 49 45 40 39 37 34 33
9 24 6 4 8 14 3 21 31 20 22 33 40 49 60 62 76 75 71 71 71 75 77 78 77 81 82 84 83 82 80 77 75 71 67 66 62 58 51 45 44 50 48 45 43 40 35 34 35
30 20 8 12 10 5 4 19 8 22 38 32 30 29 32 46 60 72 68 68 76 81 78 80 81 83 84 84 84 85 82 82 78 73 70 70 69 59 56 45 38 41 47 45 43 38 38 35 32
16 17 9 2 4 4 9 13 19 16 18 26 37 34 41 35 46 47 52 66 71 77 83 80 81 83 86 84 88 89 88 85 81 76 73 72 72 68 59 48 44 43 44 45 44 43 42 35 32
24 30 11 8 10 11 9 12 18 6 22 18 20 27 35 39 41 43 45 49 55 63 70 74 76 78 80 81 83 81 80 79 78 76 77 74 72 71 67 59 50 47 48 49 47 46 40 36 32
20 22 11 10 8 7 6 8 8 14 10 17 17 19 19 27 34 39 40 42 47 54 58 60 76 83 84 83 79 76 74 72 73 74 74 72 68 74 75 66 56 51 50 52 49 46 42 37 32
34 25 32 12 14 9 3 13 5 7 5 8 10 13 18 24 28 31 33 37 46 49 52 58 68 80 79 77 75 73 73 75 76 78 77 72 69 78 76 72 58 49 51 49 50 47 42 38 33
Wind_Direction_850mb
339 345 359 351 223 241 145 149 162 151 160 129 138 178 113 42 354 32 148 161 155 150 149 147 151 143 141 137 131 139 151 157 150 139 137 132 114 108 119 109 101 97 96 90 86 82 79 79 80
324 345 353 209 243 227 139 147 176 150 129 129 122 118 122 90 78 134 148 159 156 151 147 151 147 141 138 128 114 121 141 157 156 143 127 117 114 112 105 105 97 97 95 88 89 83 76 75 74
317 338 269 223 241 262 142 171 146 130 136 153 138 71 105 122 130 143 159 156 154 152 149 151 140 133 126 118 118 114 115 123 131 117 123 116 112 114 108 105 101 104 99 95 87 81 78 73 75
312 299 77 244 178 104 17 147 154 148 145 148 143 118 97 163 145 159 158 152 155 152 150 149 143 131 129 126 134 130 123 123 122 122 118 115 112 111 118 115 110 97 102 97 84 80 78 76 75
289 251 205 181 194 159 230 205 173 165 147 156 166 134 103 141 154 157 158 156 160 156 155 152 145 140 138 135 138 134 115 123 126 121 120 117 116 111 113 113 107 98 100 92 86 82 78 74 75
237 250 217 218 208 172 212 180 171 179 153 151 158 135 136 170 162 161 165 161 165 160 157 156 149 146 145 149 149 138 114 114 118 119 115 114 107 108 110 109 107 101 97 91 86 85 85 80 76
248 227 220 202 207 205 174 156 177 178 157 179 148 150 152 169 162 163 165 169 171 163 160 162 154 153 147 150 154 149 129 122 125 117 113 110 110 108 105 106 105 102 98 92 88 89 83 80 78
186 236 179 216 208 192 151 164 172 181 167 156 168 176 172 180 166 167 171 173 175 170 167 169 161 158 158 147 151 153 143 122 118 119 119 116 112 109 107 108 107 103 97 95 90 87 86 79 77
165 210 214 217 189 161 162 176 158 177 141 166 183 150 172 169 168 171 176 179 178 176 176 173 168 166 164 153 150 149 148 140 128 123 119 114 111 112 113 112 109 109 104 93 88 86 85 79 73
173 215 208 194 194 158 178 197 158 168 162 187 175 183 168 172 174 179 182 183 180 174 182 179 176 174 169 161 158 155 149 144 138 132 128 127 124 116 111 116 116 109 97 94 91 90 86 77 68
63 226 146 129 185 179 183 206 179 175 196 202 196 178 172 179 181 185 187 188 180 178 185 185 180 179 179 173 172 164 161 154 149 143 140 137 132 130 126 117 110 107 115 114 94 87 88 75 61
126 214 143 30 306 159 171 179 199 206 216 193 182 193 178 186 189 190 193 190 186 183 186 191 185 184 183 183 180 175 173 169 162 154 149 143 138 137 130 122 117 115 115 116 112 102 84 60 51
198 171 147 117 9 197 164 208 212 219 214 184 182 191 190 193 196 195 198 196 194 190 187 192 191 189 188 185 187 186 186 183 178 174 172 170 167 160 154 147 135 132 127 132 121 105 73 57 55
154 154 153 128 353 24 194 194 203 227 204 196 188 193 196 201 200 199 201 201 201 197 196 193 195 197 198 196 191 192 194 195 193 195 196 196 194 196 199 199 198 192 191 171 159 247 360 64 47
103 179 205 184 126 64 323 193 226 220 193 197 193 193 197 201 203 206 202 202 202 201 202 204 200 199 202 207 210 204 202 206 209 212 213 212 216 222 225 227 225 211 143 112 112 79 65 27 338
206 237 213 139 135 83 276 238 238 210 192 204 202 200 200 203 210 210 205 205 203 205 205 206 211 209 205 205 207 212 215 216 219 222 224 226 230 232 230 231 230 224 212 167 122 329 325 315 317
187 189 219 218 74 126 179 283 8 215 208 223 213 206 207 209 213 213 209 207 208 208 208 210 210 215 216 218 219 218 221 225 227 228 232 237 242 250 246 234 230 220 202 231 259 277 292 299 309
156 198 208 220 154 180 220 247 273 265 239 235 224 219 216 212 216 213 210 209 211 213 213 215 217 217 217 219 222 224 226 226 229 231 232 238 246 250 258 255 221 212 234 250 262 284 289 295 300
160 189 214 187 191 186 241 250 258 270 254 247 233 223 221 221 216 214 214 213 214 215 216 217 218 218 220 221 222 225 227 228 232 234 235 239 243 251 253 256 247 232 245 263 270 277 284 288 297
166 181 210 217 162 205 252 263 256 260 251 250 243 233 227 222 219 216 213 215 219 219 218 219 221 221 224 226 228 231 236 236 240 239 242 243 243 247 245 248 251 251 257 263 272 273 279 286 295
178 197 180 187 187 216 288 275 253 247 239 252 244 242 237 224 221 219 217 217 220 223 222 222 223 225 226 228 231 231 233 235 234 235 233 241 241 242 243 245 247 253 253 260 264 272 275 283 283
157 146 121 108 186 238 198 272 237 235 231 217 243 236 238 232 230 224 222 221 222 223 226 228 227 228 230 229 232 234 235 236 236 241 246 246 235 250 242 250 246 251 253 256 260 262 272 273 270
129 142 140 192 233 292 207 256 259 240 236 229 226 238 236 238 233 230 229 227 228 228 229 230 230 230 231 232 233 235 238 239 243 241 240 240 244 246 254 249 248 248 256 259 255 265 274 262 261
141 99 46 53 345 256 226 224 243 228 225 229 229 224 241 236 239 235 234 232 231 231 232 233 233 233 232 233 234 233 237 240 241 244 241 236 239 246 246 253 249 248 254 256 260 270 263 255 253
112 136 102 178 199 244 72 220 246 248 240 232 229 224 227 237 235 239 238 234 231 231 233 234 233 234 233 234 234 236 237 240 244 246 241 238 239 237 245 249 250 254 255 253 259 260 247 245 249
168 171 150 188 201 243 142 233 251 253 240 245 246 240 229 236 239 240 241 241 238 236 235 236 236 236 234 235 236 238 239 241 243 244 242 238 242 241 243 240 243 253 253 253 258 243 237 245 235
166 204 122 57 113 273 229 277 254 269 270 261 259 266 252 247 245 245 244 244 245 244 242 240 240 238 236 236 237 240 241 241 244 243 241 239 238 239 235 238 242 248 247 251 247 240 243 228 221
186 156 169 204 208 237 239 271 253 264 242 240 249 247 253 251 258 258 250 251 251 251 250 247 245 241 237 234 235 238 240 241 242 241 241 240 238 235 232 236 236 241 245 242 240 236 222 219 219
158 181 202 179 220 242 282 259 242 278 269 257 269 260 268 271 264 259 252 248 249 250 247 246 240 235 232 232 234 235 237 239 241 242 243 243 239 233 228 231 228 232 239 238 232 218 216 217 219
205 198 184 195 185 230 48 263 232 165 230 268 266 309 313 313 294 282 268 253 247 243 242 245 240 233 229 231 233 235 236 239 241 242 242 237 233 231 234 222 221 234 231 229 218 216 216 217 221